| time (UTC) | temp F | wind direction | speed MPH | gust MPH | rain 1hr in | rain 24hr in | rain mn in | humidity % | barometer mb |
| 20260905151508 | 84 | 269 | 0.0 | 3.0 | 0.00 | 0.00 | 0.00 | 75 | 1016.0 |
| 20260905150008 | 83 | 91 | 1.0 | 4.0 | 0.00 | 0.00 | 0.00 | 76 | 1016.0 |
| 20260905144521 | 83 | 295 | 2.0 | 8.0 | 0.00 | 0.00 | 0.00 | 78 | 1015.9 |
| 20260905143027 | 81 | 265 | 0.0 | 4.0 | 0.00 | 0.00 | 0.00 | 83 | 1016.1 |
| 20260905141504 | 80 | 234 | 0.0 | 6.0 | 0.00 | 0.00 | 0.00 | 85 | 1015.8 |
| 20260905140006 | 80 | 283 | 0.0 | 2.0 | 0.00 | 0.00 | 0.00 | 87 | 1015.6 |
| 20260905134509 | 79 | 255 | 0.0 | 2.0 | 0.00 | 0.00 | 0.00 | 91 | 1015.5 |
| 20260905133018 | 77 | 83 | 0.0 | 3.0 | 0.00 | 0.00 | 0.00 | 92 | 1015.4 |
| 20260905131524 | 76 | 117 | 0.0 | 2.0 | 0.00 | 0.00 | 0.00 | 92 | 1015.2 |
| 20260905130007 | 76 | 121 | 0.0 | 2.0 | 0.00 | 0.00 | 0.00 | 92 | 1015.0 |
| 20260905124520 | 75 | 271 | 0.0 | 0.0 | 0.00 | 0.00 | 0.00 | 92 | 1014.9 |
| 20260905123018 | 75 | 271 | 0.0 | 0.0 | 0.00 | 0.00 | 0.00 | 92 | 1014.7 |
| 20260905121524 | 75 | 271 | 0.0 | 0.0 | 0.00 | 0.00 | 0.00 | 92 | 1014.7 |
| 20260905120031 | 75 | 271 | 0.0 | 0.0 | 0.00 | 0.00 | 0.00 | 92 | 1014.3 |
| 20260905114511 | 75 | 271 | 0.0 | 0.0 | 0.00 | 0.00 | 0.00 | 92 | 1014.4 |
| 20260905113015 | 75 | 271 | 0.0 | 0.0 | 0.00 | 0.00 | 0.00 | 92 | 1014.4 |
| 20260905111522 | 75 | 271 | 0.0 | 0.0 | 0.00 | 0.00 | 0.00 | 91 | 1014.3 |
| 20260905110028 | 76 | 271 | 0.0 | 0.0 | 0.00 | 0.00 | 0.00 | 91 | 1014.2 |
| 20260905104536 | 76 | 271 | 0.0 | 0.0 | 0.00 | 0.00 | 0.00 | 91 | 1014.3 |
| 20260905103011 | 76 | 271 | 0.0 | 0.0 | 0.00 | 0.00 | 0.00 | 91 | 1014.3 |
| 20260905101517 | 76 | 271 | 0.0 | 0.0 | 0.00 | 0.00 | 0.00 | 90 | 1014.4 |
| 20260905100025 | 76 | 271 | 0.0 | 2.0 | 0.00 | 0.00 | 0.00 | 90 | 1014.2 |
| 20260905094527 | 76 | 271 | 0.0 | 0.0 | 0.00 | 0.00 | 0.00 | 89 | 1014.0 |
| 20260905093032 | 77 | 271 | 0.0 | 0.0 | 0.00 | 0.00 | 0.00 | 88 | 1014.1 |
| 20260905091516 | 77 | 271 | 0.0 | 2.0 | 0.00 | 0.00 | 0.00 | 88 | 1014.2 |
| 20260905090023 | 78 | 195 | 0.0 | 2.0 | 0.00 | 0.00 | 0.00 | 87 | 1014.2 |
| 20260905084503 | 78 | 171 | 0.0 | 2.0 | 0.00 | 0.00 | 0.00 | 87 | 1014.2 |
| 20260905083006 | 77 | 209 | 0.0 | 2.0 | 0.00 | 0.00 | 0.00 | 87 | 1014.3 |
| 20260905081514 | 78 | 249 | 0.0 | 2.0 | 0.00 | 0.00 | 0.00 | 86 | 1014.4 |
| 20260905080019 | 78 | 105 | 0.0 | 2.0 | 0.00 | 0.00 | 0.00 | 86 | 1014.5 |
| 20260905074503 | 78 | 242 | 0.0 | 2.0 | 0.00 | 0.00 | 0.00 | 85 | 1014.5 |
| 20260905073007 | 78 | 277 | 0.0 | 2.0 | 0.00 | 0.00 | 0.00 | 84 | 1014.7 |
| 20260905071510 | 78 | 268 | 0.0 | 3.0 | 0.00 | 0.00 | 0.00 | 83 | 1014.7 |
| 20260905070016 | 79 | 170 | 0.0 | 2.0 | 0.00 | 0.00 | 0.00 | 82 | 1014.9 |
| 20260905064526 | 79 | 204 | 0.0 | 2.0 | 0.00 | 0.00 | 0.00 | 81 | 1014.9 |
| 20260905063006 | 79 | 119 | 0.0 | 4.0 | 0.00 | 0.00 | 0.00 | 81 | 1014.9 |
| 20260905061508 | 80 | 128 | 0.0 | 2.0 | 0.00 | 0.00 | 0.00 | 79 | 1015.0 |
| 20260905060016 | 80 | 164 | 0.0 | 3.0 | 0.00 | 0.00 | 0.00 | 79 | 1015.1 |
| 20260905054528 | 80 | 250 | 0.0 | 4.0 | 0.00 | 0.00 | 0.00 | 78 | 1015.0 |
| 20260905053032 | 80 | 116 | 0.0 | 2.0 | 0.00 | 0.00 | 0.00 | 77 | 1014.9 |
| 20260905051521 | 81 | 286 | 0.0 | 4.0 | 0.00 | 0.00 | 0.00 | 76 | 1015.0 |
| 20260905050013 | 81 | 338 | 0.0 | 5.0 | 0.00 | 0.00 | 0.00 | 75 | 1015.0 |
| 20260905044519 | 81 | 121 | 1.0 | 8.0 | 0.00 | 0.00 | 0.00 | 75 | 1014.9 |
| 20260905043028 | 81 | 134 | 0.0 | 9.0 | 0.00 | 0.00 | 0.00 | 74 | 1014.9 |
| 20260905041529 | 81 | 128 | 0.0 | 3.0 | 0.00 | 0.00 | 0.00 | 74 | 1014.9 |
| 20260905040010 | 81 | 167 | 1.0 | 4.0 | 0.00 | 0.00 | 0.00 | 74 | 1014.8 |
| 20260905034517 | 81 | 246 | 0.0 | 4.0 | 0.00 | 0.00 | 0.00 | 72 | 1014.9 |
| 20260905033025 | 82 | 99 | 0.0 | 2.0 | 0.00 | 0.00 | 0.00 | 72 | 1014.7 |
| 20260905031532 | 82 | 118 | 0.0 | 4.0 | 0.00 | 0.00 | 0.00 | 71 | 1014.7 |
| 20260905030034 | 82 | 126 | 0.0 | 2.0 | 0.00 | 0.00 | 0.00 | 70 | 1014.5 |
| 20260905024516 | 83 | 91 | 0.0 | 4.0 | 0.00 | 0.00 | 0.00 | 69 | 1014.3 |
| 20260905023025 | 83 | 82 | 0.0 | 4.0 | 0.00 | 0.00 | 0.00 | 70 | 1014.2 |
| 20260905021527 | 83 | 144 | 0.0 | 4.0 | 0.00 | 0.00 | 0.00 | 71 | 1013.9 |
| 20260905020027 | 83 | 103 | 0.0 | 4.0 | 0.00 | 0.00 | 0.00 | 70 | 1013.8 |
| 20260905014534 | 84 | 149 | 0.0 | 2.0 | 0.00 | 0.00 | 0.00 | 70 | 1013.8 |
| 20260905013016 | 84 | 111 | 1.0 | 4.0 | 0.00 | 0.00 | 0.00 | 69 | 1013.7 |
| 20260905011512 | 84 | 98 | 1.0 | 6.0 | 0.00 | 0.00 | 0.00 | 70 | 1013.7 |
| 20260905010008 | 84 | 24 | 0.0 | 2.0 | 0.00 | 0.00 | 0.00 | 70 | 1013.4 |
| 20260905004514 | 85 | 78 | 0.0 | 4.0 | 0.00 | 0.00 | 0.00 | 69 | 1013.2 |
| 20260905003026 | 86 | 159 | 0.0 | 3.0 | 0.00 | 0.00 | 0.00 | 67 | 1013.1 |
| 20260905001509 | 86 | 154 | 0.0 | 5.0 | 0.00 | 0.00 | 0.00 | 66 | 1013.1 |
| 20260905000034 | 87 | 69 | 1.0 | 6.0 | 0.00 | 0.00 | 0.00 | 65 | 1012.9 |
| 20260904234505 | 87 | 256 | 0.0 | 9.0 | 0.00 | 0.00 | 0.00 | 65 | 1012.9 |
| 20260904233011 | 87 | 146 | 0.0 | 5.0 | 0.00 | 0.00 | 0.00 | 64 | 1012.9 |
| 20260904231519 | 88 | 115 | 1.0 | 7.0 | 0.00 | 0.00 | 0.00 | 62 | 1012.9 |
| 20260904230045 | 89 | 166 | 2.0 | 9.0 | 0.00 | 0.00 | 0.00 | 60 | 1013.0 |
| 20260904224530 | 93 | 221 | 1.0 | 6.0 | 0.00 | 0.00 | 0.00 | 48 | 1012.7 |
| 20260904223007 | 94 | 89 | 1.0 | 9.0 | 0.00 | 0.00 | 0.00 | 48 | 1012.7 |
| 20260904221515 | 92 | 115 | 1.0 | 9.0 | 0.00 | 0.00 | 0.00 | 51 | 1012.7 |
| 20260904220002 | 94 | 250 | 1.0 | 4.0 | 0.00 | 0.00 | 0.00 | 49 | 1012.8 |
| 20260904214504 | 93 | 350 | 1.0 | 8.0 | 0.00 | 0.00 | 0.00 | 46 | 1013.2 |
| 20260904213007 | 95 | 99 | 1.0 | 7.0 | 0.00 | 0.00 | 0.00 | 41 | 1013.3 |
| 20260904211513 | 95 | 33 | 1.0 | 8.0 | 0.00 | 0.00 | 0.00 | 45 | 1013.5 |
| 20260904210026 | 94 | 103 | 1.0 | 7.0 | 0.00 | 0.00 | 0.00 | 45 | 1013.7 |
| 20260904204526 | 94 | 257 | 2.0 | 7.0 | 0.00 | 0.00 | 0.00 | 46 | 1013.9 |
| 20260904203006 | 94 | 201 | 0.0 | 7.0 | 0.00 | 0.00 | 0.00 | 44 | 1014.1 |
| 20260904201509 | 95 | 292 | 1.0 | 7.0 | 0.00 | 0.00 | 0.00 | 46 | 1014.3 |
| 20260904200037 | 93 | 119 | 1.0 | 8.0 | 0.00 | 0.00 | 0.00 | 48 | 1014.5 |
| 20260904194534 | 94 | 164 | 3.0 | 7.0 | 0.00 | 0.00 | 0.00 | 47 | 1014.6 |
| 20260904193026 | 93 | 226 | 1.0 | 4.0 | 0.00 | 0.00 | 0.00 | 55 | 1014.9 |
| 20260904191514 | 91 | 273 | 1.0 | 7.0 | 0.00 | 0.00 | 0.00 | 60 | 1015.0 |
| 20260904190016 | 87 | 109 | 1.0 | 5.0 | 0.00 | 0.00 | 0.00 | 65 | 1015.3 |
| 20260904184528 | 87 | 281 | 1.0 | 6.0 | 0.00 | 0.00 | 0.00 | 66 | 1015.5 |
| 20260904183030 | 88 | 144 | 1.0 | 5.0 | 0.00 | 0.00 | 0.00 | 64 | 1015.6 |
| 20260904181509 | 87 | 234 | 0.0 | 2.0 | 0.00 | 0.00 | 0.00 | 71 | 1015.6 |
| 20260904180011 | 85 | 138 | 0.0 | 3.0 | 0.00 | 0.00 | 0.00 | 72 | 1015.8 |
| 20260904174525 | 86 | 53 | 0.0 | 2.0 | 0.00 | 0.00 | 0.00 | 72 | 1015.9 |
| 20260904173023 | 85 | 140 | 0.0 | 4.0 | 0.00 | 0.00 | 0.00 | 72 | 1016.0 |
| 20260904171530 | 85 | 149 | 0.0 | 5.0 | 0.00 | 0.00 | 0.00 | 73 | 1015.9 |
| 20260904170013 | 84 | 132 | 1.0 | 2.0 | 0.00 | 0.00 | 0.00 | 74 | 1016.1 |
| 20260904164534 | 84 | 260 | 0.0 | 4.0 | 0.00 | 0.00 | 0.00 | 73 | 1016.1 |
| 20260904163021 | 84 | 255 | 0.0 | 7.0 | 0.00 | 0.00 | 0.00 | 75 | 1016.1 |
| 20260904161505 | 84 | 248 | 0.0 | 3.0 | 0.00 | 0.00 | 0.00 | 76 | 1016.0 |
| 20260904160032 | 83 | 107 | 0.0 | 6.0 | 0.00 | 0.00 | 0.00 | 77 | 1015.9 |
| 20260904154513 | 83 | 36 | 2.0 | 8.0 | 0.00 | 0.00 | 0.00 | 78 | 1015.9 |
| 20260904153019 | 83 | 200 | 1.0 | 8.0 | 0.00 | 0.00 | 0.00 | 80 | 1015.8 |